Home   Weather   Molde   Past weeks
Flag for Norway

Past Weather in Molde, Norway — Yesterday and Last 2 Weeks

Now
54 °F

Partly sunny.


Feels Like: 51 °F
Forecast: 47 / 40 °F
Wind: 8 mph from North

Location: Aro

Current Time: Apr 6, 2020 at 7:57:57 pm

Latest Report: Apr 6, 2020 at 7:20 pm


Visibility: N/A

Pressure: 29.74 "Hg

Humidity: 38%

Dew Point: 28 °F

Location of MoldeLocation

Past Weather in Molde — Graph

°F

Molde Temperature Yesterday

Maximum temperature yesterday: 43 °F (at 6:20 pm)
Minimum temperature yesterday: 28 °F (at 12:20 am)
Average temperature yesterday: 35 °F

High & Low Weather Summary for the Past Weeks

 TemperatureHumidityPressure
High59 °F (Apr 6, 3:20 pm)100% (Mar 26, 7:50 am)30.66 "Hg (Mar 26, 7:50 am)
Low28 °F (Mar 28, 7:20 pm)24% (Mar 23, 3:20 pm)28.80 "Hg (Apr 2, 10:20 am)
Average39 °F76%29.97 "Hg
* Reported Mar 22 5:20 pm — Apr 6 6:20 pm, Molde. Weather by CustomWeather, © 2020

Note: Actual official high and low records may vary slightly from our data, if they occured in-between our weather recording intervals... More about our weather records

Molde Weather History for the Previous 24 Hours

Scroll right to see more
 ConditionsComfort  
Time TempWeatherWind HumidityBarometerVisibility
6:20 pm
Mon, Apr 6
54 °FScattered clouds.12 mph38%29.74 "HgN/A
5:50 pm54 °FScattered clouds.9 mph41%29.74 "HgN/A
5:20 pm54 °FScattered clouds.13 mph44%29.74 "HgN/A
4:50 pm57 °FScattered clouds.13 mph36%29.74 "HgN/A
4:20 pm57 °FSunny.12 mph33%29.74 "Hg10 mi
3:50 pm55 °FSunny.10 mph41%29.74 "Hg10 mi
3:20 pm59 °FPassing clouds.12 mph29%29.74 "HgN/A
2:50 pm57 °FPassing clouds.8 mph31%29.74 "HgN/A
2:20 pm57 °FSunny.7 mph31%29.77 "Hg10 mi
1:50 pm57 °FPassing clouds.8 mph29%29.77 "HgN/A
1:20 pm54 °FSunny.10 mph41%29.77 "Hg10 mi
12:50 pm52 °FSunny.12 mph41%29.77 "Hg10 mi
12:20 pm52 °FSunny.10 mph41%29.77 "Hg10 mi
11:50 am46 °FSunny.10 mph57%29.77 "Hg10 mi
11:20 am46 °FSunny.12 mph62%29.80 "Hg10 mi
10:50 am46 °FSunny.13 mph57%29.80 "Hg10 mi
10:20 am46 °FSunny.14 mph50%29.80 "Hg10 mi
9:50 am45 °FSunny.15 mph57%29.80 "Hg10 mi
9:20 am45 °FSunny.14 mph57%29.83 "Hg10 mi
8:50 am45 °FSunny.13 mph57%29.83 "Hg10 mi
8:20 am43 °FSunny.12 mph66%29.83 "Hg10 mi
7:50 am43 °FSunny.12 mph57%29.83 "Hg10 mi
7:20 am41 °FSunny.12 mph70%29.86 "Hg10 mi
6:50 am41 °FQuite cool.9 mph70%29.86 "HgN/A
6:20 am41 °FPassing clouds.7 mph66%29.86 "HgN/A
5:50 am39 °FPassing clouds.6 mph75%29.86 "HgN/A
5:20 am39 °FMostly cloudy.9 mph81%29.89 "HgN/A
4:50 am41 °FOvercast.7 mph70%29.89 "HgN/A
4:20 am41 °FOvercast.7 mph76%29.89 "HgN/A
3:50 am41 °FOvercast.9 mph76%29.89 "HgN/A
3:20 am41 °FOvercast.10 mph70%29.92 "HgN/A
2:50 am41 °FPassing clouds.8 mph70%29.92 "HgN/A
2:20 am45 °FPassing clouds.10 mph57%29.92 "HgN/A
1:50 am43 °FPassing clouds.12 mph66%29.95 "HgN/A
1:20 am41 °FPassing clouds.14 mph76%29.95 "HgN/A
12:50 am43 °FPassing clouds.14 mph66%29.95 "HgN/A
12:20 am41 °FPassing clouds.13 mph76%29.95 "HgN/A
11:50 pm
Sun, Apr 5
41 °FPassing clouds.10 mph76%29.95 "HgN/A
11:20 pm37 °FChilly.8 mph81%29.98 "HgN/A
10:50 pm37 °FChilly.8 mph87%29.98 "HgN/A
10:20 pm37 °FChilly.7 mph87%29.98 "HgN/A
9:20 pm39 °FChilly.8 mph81%30.01 "HgN/A
8:20 pm39 °FScattered clouds.6 mph87%30.01 "HgN/A
7:50 pm41 °FPartly sunny.7 mph81%30.01 "HgN/A
7:20 pm43 °FScattered clouds.6 mph76%30.01 "HgN/A
Weather by CustomWeather, © 2020

See weather overview

Advertising